www.pogodaiklimat.ru

Погода и климат >> Архив погоды >> Ирак >> Salahadin


ПОГОДА в Salahadin

  • Прогноз погоды в Salahadin
  • Монитор погоды в Salahadin
  • Климат города

АРХИВ ПОГОДЫ в Salahadin

Время (UTC), дата Ветер
(напр.,м/с)
 
Видим.   Явления Облачность Т
(С)
Тd
(С)
f
(%)
Тe
(С)
Тes
(С)
Комфортность P
(гПа)
Po
(гПа)
Тmin
(С)
Tmax
(С)
R
(мм)
R24
(мм)
S
(см)
15 11.08 З 3 10 км ясно +35.4 +7.4 18 +33 +34 жарко 1002.1 1002.0
03 12.08 штиль 0 10 км ясно +24.3 +10.2 41 +25 +26 комфорт 1007.0 1007.0
06 12.08 штиль 0 10 км ясно +31.0 +8.8 25 +30 +44 жарко 1004.8 1005.0 +24.0
09 12.08 ЮЗ 2 10 км ясно +34.1 +7.4 19 +32 +51 опасность
солнечного
удара
1003.9 1004.0
12 12.08 ЮЗ 4 10 км ясно +35.5 +7.2 18 +34 +41 очень
жарко
1002.5 1003.0
15 12.08 ЮЗ 2 10 км ясно +33.7 +5.9 18 +32 +32 жарко 1002.6 1003.0
18 12.08 ЮЗ 1 10 км ясно +30.4 +7.1 23 +29 +29 жарко 1004.2 1004.0 +36.4
03 13.08 СВ 1 10 км ясно +23.0 +10.2 44 +25 +25 комфорт 1004.3 1004.0
06 13.08 СВ 1 10 км ясно +30.8 +9.4 27 +30 +43 жарко 1001.6 1002.0 +22.4
09 13.08 Ю 4 10 км ясно +33.5 +10.6 25 +33 +46 жарко 999.9 1000.0
12 13.08 З 3 10 км ясно +35.5 +10.6 22 +35 +44 очень
жарко
998.4 998.0
18 13.08 ЮЗ 1 10 км ясно +30.2 +7.3 24 +29 +29 жарко 1000.4 1000.0 +36.1
06 14.08 СВ 1 10 км ясно +31.2 +11.1 29 +31 +43 жарко 1000.2 1000.0 +24.2
09 14.08 Ю 3 10 км ясно +35.2 +11.6 24 +35 +51 опасность
солнечного
удара
998.9 999.0
12 14.08 ЮЗ 2 10 км 1/1 750 м
[Cu hum]
+36.4 +13.0 25 +37 +46 очень
жарко
997.7 998.0
15 14.08 ЮЗ 4 10 км ясно +34.6 +9.6 22 +34 +34 очень
жарко
998.2 998.0
18 14.08 ЮЗ 1 10 км ясно +31.2 +5.8 20 +29 +29 жарко 1000.1 1000.0 +37.2
09 15.08 В 3 10 км ясно +33.7 +12.6 28 +34 +50 очень
жарко
1001.0 1001.0
18 15.08 ЮВ 1 10 км ясно +30.0 +12.2 33 +31 +31 жарко 1004.6 1005.0 +37.4
03 16.08 СВ 2 10 км ясно +28.2 +10.0 32 +28 +29 жарко 1005.2 1005.0
06 16.08 С 3 10 км ясно +31.6 +11.4 29 +32 +40 жарко 1004.2 1004.0 +26.4
09 16.08 Ю 3 10 км ясно +36.6 +11.4 22 +36 +51 опасность
солнечного
удара
1002.5 1003.0
12 16.08 Ю 4 10 км ясно +38.2 +11.5 20 +37 +45 очень
жарко
1001.2 1001.0
15 16.08 ЮЗ 4 10 км ясно +36.4 +10.2 20 +35 +35 очень
жарко
1001.8 1002.0
18 16.08 штиль 0 10 км ясно +31.0 +9.4 26 +30 +30 жарко 1004.7 1005.0 +38.6
06 17.08 штиль 0 10 км ясно +34.2 +14.2 30 +35 +49 очень
жарко
1003.2 1003.0 +25.2
12 17.08 З 4 10 км ясно +38.5 +10.0 18 +37 +44 очень
жарко
999.9 1000.0
15 17.08 З 2 10 км ясно +36.8 +8.8 18 +35 +35 очень
жарко
999.7 1000.0
18 17.08 З 1 10 км ясно +32.8 +7.6 21 +31 +31 жарко 1002.5 1003.0 +36.8

 

Местоположение метеостанции Salahadin (Ирак): широта 36.38 долгота 44.20 высота над уровнем моря 1075 м.

В архиве по умолчанию представлена погода в Salahadin за последнюю неделю. Архивные данные за месяц целиком и за предыдущие месяцы, начиная с января 2011 года, Вы можете получить, выбрав интересующий диапазон дат из раскрывающегося списка и нажав кнопку "Ввод!".


*Определитесь, кто Вы:
робот инопланетянин человек

Внимание! Время в таблицах - всемирное. Для получения местного времени необходимо прибавить поправку, которая в Salahadin равна 3 ч.

Смотрите также архив погоды в соседних городах и на ближайших метеорологических станциях:

Погода в Erbeel (Ирак) (31 км)
Погода в Aqraa (Ирак) (50 км)
Погода в Makhmoor (Ирак) (88 км)
Погода в Mosul (Ирак) (94 км)
Погода в Kirkuk (Ирак) (103 км)
Погода в Chamchamal (Ирак) (111 км)
Погода в Dohuk (Ирак) (120 км)
Погода в Hakkari (Турция) (138 км)
Погода в Mahabad (Иран) (143 км)
Погода в Sulaimaniya (Ирак) (146 км)

Пояснения к столбцам:

Ветер - указаны скорость ветра в м/с - средняя за 10 мин, порывы в срок и между сроками (в фигурных скобках) и направление, откуда дует ветер: С - северный, СВ - северо-восточный, В - восточный, ЮВ - юго-восточный, Ю - южный, ЮЗ - юго-западный, З - западный, СЗ - северо-западный.
Видимость - горизонтальная дальность видимости в метрах или километрах. При видимости от 1 до 10 км при отсутствии осадков обычно наблюдается дымка, при ухудшении видимости до 1 км и менее - туман. В сухую погоду видимость может ухудшаться дымом, пылью или мглою.
Явления - указаны атмосферные явления, наблюдавшиеся в срок или в последний час перед сроком; фигурными скобками обозначены явления, наблюдавшиеся между сроками (за 1-3 часа до срока); квадратными скобками обозначены град или гололедные отложения с указанием их диаметра в мм.
Облачность - указаны через наклонную черту общая и нижняя облачность в баллах и высота нижней границы облаков в метрах; квадратными скобками обозначены формы облаков: Ci - перистые, Cs - перисто-слоистые, Cc - перисто-кучевые, Ac - высококучевые, As - высокослоистые, Sc - слоисто-кучевые, Ns - слоисто-дождевые, Cu - кучевые, Cb - кучево-дождевые. Подробнее классификацию облаков см. в Атласе облаков (PDF).
T - Температура воздуха - температура, измеренная на высоте 2 м над землей.
Td - Температура точки росы - температура, при понижении до которой содержащийся в воздухе водяной пар достигнет насыщения.
f - Относительная влажность воздуха - влажноcть воздуха, измеренная на высоте 2 м над землей.
Te - Эффективная температура - температура, которую ощущает одетый по сезону человек в тени. Характеристика душности погоды. При расчете учитывается влияние влажности воздуха и скорости ветра на теплоощущения человека.
Tes - Эффективная температура на солнце - температура, которую ощущает человек, с поправкой на солнечный нагрев. Характеристика знойности погоды. Зависит от высоты солнца над горизонтом, облачности и скорости ветра. Ночью, в пасмурную погоду, а также при ветре 12 м/с и более поправка равна нулю.
P - Атмосферное давление - приведенное к уровню моря атмосферное давление.
Po - Атмосферное давление - измеренное на уровне метеостанции атмосферное давление.
Tmin - Минимальная температура - минимум температуры воздуха на высоте 2 м над землей.
Tmax - Максимальная температура - максимум температуры воздуха на высоте 2 м над землей.
R - Количество осадков - Количество выпавших осадков за период времени, мм. При наведении курсора мыши на число - период времени, за который выпало указанное количество осадков.
R24 - Количество осадков - Количество выпавших осадков за 24 часа, мм.
S - Снежный покров - Высота снежного покрова, см. При наведении курсора мыши на число - состояние снежного покрова и степень покрытия местности в баллах.